Overview Statistics Trail Chart Weather Telemetry Raw packets
 

This is the latest recevied weather packets stored in our database for station/object KC2TER. If no packets are shown the sender has not sent any weather packets the latest 10 day(s).

<< 104 105 106 107 108 109 110 >>
Time Temp. Humidity Pressure Rain* Wind** Luminosity Snow
1787777177 26.11° C 72% 1017.8 hPa 0 mm - 225 W/m² -
1787776876 26.67° C 71% 1017.8 hPa 0 mm - 127 W/m² -
1787776570 26.67° C 70% 1018 hPa 0 mm - 278 W/m² -
1787776268 27.22° C 70% 1017.9 hPa 0 mm - 245 W/m² -
1787775967 27.22° C 68% 1018 hPa 0 mm - 288 W/m² -
1787775662 27.22° C 67% 1017.9 hPa 0 mm - 337 W/m² -
1787775361 27.22° C 69% 1017.9 hPa 0 mm - 338 W/m² -
1787775055 26.67° C 69% 1017.8 hPa 0 mm - 380 W/m² -
1787774754 26.67° C 68% 1017.9 hPa 0 mm - 399 W/m² -
1787774449 27.22° C 68% 1018 hPa 0 mm - 406 W/m² -
1787774144 27.22° C 65% 1018.2 hPa 0 mm - 430 W/m² -
1787773842 27.78° C 66% 1017.9 hPa 0 mm - 439 W/m² -
1787773541 27.78° C 66% 1018 hPa 0 mm - 495 W/m² -
1787773237 27.78° C 66% 1018 hPa 0 mm - 534 W/m² -
1787772932 27.78° C 65% 1018.2 hPa 0 mm - 553 W/m² -
1787772628 27.78° C 66% 1018.2 hPa 0 mm - 589 W/m² -
1787772326 27.78° C 66% 1018.3 hPa 0 mm - 593 W/m² -
1787772026 27.22° C 67% 1018.1 hPa 0 mm - 614 W/m² -
1787771721 27.22° C 66% 1018.1 hPa 0 mm - 625 W/m² -
1787771419 27.22° C 66% 1018.2 hPa 0 mm - 649 W/m² -
1787771118 26.67° C 66% 1018.3 hPa 0 mm - 649 W/m² -
1787770814 26.67° C 67% 1018.3 hPa 0 mm - 662 W/m² -
1787770512 26.67° C 67% 1018.4 hPa 0 mm - 698 W/m² -
1787770212 26.67° C 66% 1018.4 hPa 0 mm - 703 W/m² -
1787769910 26.67° C 67% 1018.4 hPa 0 mm - 703 W/m² -

* Rain latest hour (hover to see other rain measurements)
** Current wind speed in m/s (hover to see current wind gust speed)